User: anonymous   Login
Location: Demmingen
(48.6757°N, 10.4375°E)
Time: 06:52:09
(UTC+00:00)
Language:

Cosmos 1346 Rocket - Orbit

View from above orbital plane
View from above orbital plane
View from above satellite
View from above satellite

Ground track
Ground track

The orbit data is extracted from the following two-line orbital elements,

1 13121U 82027B   24202.90139703  .00009481  00000-0  47015-3 0  9991
2 13121  81.1917  17.6502 0011273 128.9813 231.2423 15.17564185307699
Epoch (UTC): 20 July 2024 21:38:00
Eccentricity: 0.0011273
inclination: 81.1917°
perigee height: 505 km
apogee height: 521 km
right ascension of ascending node: 17.6502°
argument of perigee: 128.9813°
revolutions per day: 15.17564185
mean anomaly at epoch: 231.2423°
orbit number at epoch: 30769

The dashed part of the orbit path shows where the satellite is in the earth's shadow,  

DLR